Location: La Silve
(44.2414°N, 5.8889°E)
Time: 05:28:58
(UTC+00:00)

SMAP - Pass Details

Date: 01 December 2020
Orbit: 681 x 683 km, 98.1° (Epoch: 27 January)

Event Time Altitude Azimuth Distance (km) Brightness Sun altitude
Rises 16:58:59 0° 166° (SSE) 3,031 6.5 -10.6°
Reaches altitude 10° 17:01:13 10° 167° (SSE) 2,121 5.7 -10.9°
Maximum altitude 17:05:51 86° 253° (WSW) 691 3.1 -11.7°
Drops below altitude 10° 17:10:33 10° 346° (NNW) 2,138 5.6 -12.5°
Sets 17:12:48 0° 347° (NNW) 3,058 6.4 -12.9°
